TimeCST,TemperatureF,Dew PointF,Humidity,Sea Level PressureIn,VisibilityMPH,Wind Direction,Wind SpeedMPH,Gust SpeedMPH,PrecipitationIn,Events,Conditions,WindDirDegrees,DateUTC
12:13 AM,31.1,28.4,90,29.46,2.5,West,3.5,-,N/A,,Overcast,260,2014-01-11 06:13:00
12:32 AM,30.9,28.2,90,29.47,2.0,West,9.2,-,N/A,,Overcast,270,2014-01-11 06:32:00
12:53 AM,30.2,27.5,90,29.47,1.0,West,6.9,-,N/A,,Overcast,260,2014-01-11 06:53:00
1:12 AM,29.8,27.3,90,29.47,0.5,West,4.6,-,N/A,Fog,Light Freezing Fog,260,2014-01-11 07:12:00
1:33 AM,28.8,26.2,90,29.47,0.8,WNW,10.4,-,N/A,,Overcast,290,2014-01-11 07:33:00
1:52 AM,27.9,25.3,90,29.47,0.5,West,6.9,-,N/A,Fog,Light Freezing Fog,260,2014-01-11 07:52:00
2:13 AM,27.1,24.6,90,29.47,0.5,West,6.9,-,N/A,Fog,Light Freezing Fog,270,2014-01-11 08:13:00
2:33 AM,26.6,23.9,90,29.48,0.5,West,5.8,-,N/A,Fog,Light Freezing Fog,270,2014-01-11 08:33:00
2:52 AM,25.5,22.8,89,29.49,0.8,West,5.8,-,N/A,,Overcast,260,2014-01-11 08:52:00
3:12 AM,24.6,21.9,89,29.48,1.2,West,6.9,-,N/A,,Overcast,270,2014-01-11 09:12:00
3:33 AM,23.7,21.0,89,29.48,1.8,West,4.6,-,N/A,,Overcast,270,2014-01-11 09:33:00
3:52 AM,22.5,19.4,88,29.49,4.0,WSW,3.5,-,N/A,,Scattered Clouds,250,2014-01-11 09:52:00
4:13 AM,21.2,18.3,89,29.48,4.0,West,3.5,-,N/A,,Clear,260,2014-01-11 10:13:00
4:32 AM,19.4,16.2,87,29.48,5.0,SW,3.5,-,N/A,,Clear,230,2014-01-11 10:32:00
4:53 AM,19.2,15.8,87,29.49,7.0,WSW,4.6,-,N/A,,Clear,240,2014-01-11 10:53:00
5:12 AM,18.7,15.4,87,29.50,7.0,WSW,3.5,-,N/A,,Clear,240,2014-01-11 11:12:00
5:33 AM,18.9,15.6,87,29.51,10.0,West,6.9,-,N/A,,Clear,260,2014-01-11 11:33:00
5:52 AM,18.9,15.6,87,29.51,10.0,West,4.6,-,N/A,,Scattered Clouds,270,2014-01-11 11:52:00
6:13 AM,19.2,16.2,88,29.51,10.0,West,6.9,-,N/A,,Overcast,270,2014-01-11 12:13:00
6:33 AM,20.8,17.8,88,29.52,10.0,West,8.1,-,N/A,,Overcast,280,2014-01-11 12:33:00
6:52 AM,22.3,19.4,89,29.53,10.0,West,8.1,-,N/A,,Overcast,270,2014-01-11 12:52:00
7:13 AM,23.0,20.1,89,29.53,10.0,West,10.4,-,N/A,,Overcast,270,2014-01-11 13:13:00
7:32 AM,23.7,20.8,89,29.54,10.0,West,10.4,-,N/A,,Overcast,270,2014-01-11 13:32:00
7:53 AM,23.9,21.0,89,29.54,7.0,West,12.7,-,N/A,,Overcast,280,2014-01-11 13:53:00
8:13 AM,24.3,21.4,89,29.55,5.0,West,13.8,-,N/A,,Overcast,280,2014-01-11 14:13:00
8:33 AM,24.8,22.1,89,29.56,5.0,West,10.4,-,N/A,,Overcast,270,2014-01-11 14:33:00
8:53 AM,25.2,22.1,88,29.57,2.5,West,12.7,-,N/A,,Overcast,280,2014-01-11 14:53:00
9:13 AM,25.7,23.0,89,29.57,3.0,West,8.1,-,N/A,,Overcast,270,2014-01-11 15:13:00
9:33 AM,26.1,23.0,88,29.58,4.0,West,8.1,-,N/A,,Overcast,270,2014-01-11 15:33:00
9:53 AM,26.8,23.7,88,29.58,5.0,WNW,11.5,-,N/A,,Overcast,290,2014-01-11 15:53:00
10:13 AM,27.5,24.3,88,29.60,7.0,WNW,13.8,-,N/A,,Overcast,290,2014-01-11 16:13:00
10:33 AM,28.0,23.9,84,29.61,7.0,WNW,12.7,-,N/A,,Overcast,300,2014-01-11 16:33:00
10:53 AM,28.0,23.7,84,29.62,7.0,WNW,15.0,19.6,N/A,,Overcast,290,2014-01-11 16:53:00
11:13 AM,28.4,23.5,82,29.62,7.0,WNW,16.1,-,N/A,,Overcast,300,2014-01-11 17:13:00
11:33 AM,28.8,23.5,81,29.62,10.0,WNW,16.1,20.7,N/A,,Overcast,300,2014-01-11 17:33:00
11:53 AM,29.1,23.7,80,29.61,10.0,WNW,16.1,-,N/A,,Overcast,300,2014-01-11 17:53:00
12:13 PM,29.3,23.7,80,29.62,10.0,WNW,15.0,21.9,N/A,,Overcast,300,2014-01-11 18:13:00
12:33 PM,29.7,24.1,80,29.62,10.0,West,13.8,20.7,N/A,,Overcast,280,2014-01-11 18:33:00
12:52 PM,29.3,23.5,79,29.62,10.0,West,19.6,24.2,N/A,,Overcast,280,2014-01-11 18:52:00
1:13 PM,29.1,22.8,77,29.63,10.0,West,13.8,-,N/A,,Mostly Cloudy,270,2014-01-11 19:13:00
1:33 PM,29.1,22.8,77,29.62,10.0,West,13.8,17.3,N/A,,Scattered Clouds,270,2014-01-11 19:33:00
1:52 PM,29.5,23.5,79,29.63,10.0,West,12.7,-,N/A,,Mostly Cloudy,270,2014-01-11 19:52:00
2:13 PM,29.5,23.7,79,29.63,10.0,West,15.0,-,N/A,,Overcast,270,2014-01-11 20:13:00
2:33 PM,28.9,23.5,80,29.63,10.0,West,16.1,19.6,N/A,,Mostly Cloudy,270,2014-01-11 20:33:00
2:53 PM,29.1,23.9,81,29.63,10.0,West,15.0,20.7,N/A,,Overcast,270,2014-01-11 20:53:00
3:13 PM,29.1,24.3,82,29.64,10.0,West,13.8,20.7,N/A,,Overcast,270,2014-01-11 21:13:00
3:33 PM,29.3,24.6,83,29.65,10.0,West,11.5,17.3,N/A,,Overcast,270,2014-01-11 21:33:00
3:53 PM,29.3,24.8,83,29.66,10.0,West,12.7,18.4,N/A,,Overcast,270,2014-01-11 21:53:00
4:13 PM,30.0,25.3,83,29.65,10.0,West,10.4,16.1,N/A,,Overcast,280,2014-01-11 22:13:00
4:32 PM,29.7,24.8,82,29.65,10.0,West,9.2,-,N/A,,Scattered Clouds,280,2014-01-11 22:32:00
4:53 PM,28.9,24.1,82,29.65,10.0,West,5.8,-,N/A,,Clear,270,2014-01-11 22:53:00
5:13 PM,27.0,22.5,83,29.66,10.0,SW,3.5,-,N/A,,Clear,230,2014-01-11 23:13:00
5:32 PM,25.7,21.9,86,29.67,10.0,South,4.6,-,N/A,,Clear,190,2014-01-11 23:32:00
5:53 PM,26.4,22.6,86,29.67,10.0,Calm,Calm,-,N/A,,Clear,0,2014-01-11 23:53:00
6:12 PM,23.7,20.7,88,29.67,7.0,SSW,5.8,-,N/A,,Clear,200,2014-01-12 00:12:00
6:33 PM,25.2,22.5,89,29.67,7.0,SW,3.5,-,N/A,,Clear,220,2014-01-12 00:33:00
6:52 PM,24.8,21.7,88,29.67,7.0,SSW,5.8,-,N/A,,Clear,210,2014-01-12 00:52:00
7:13 PM,25.5,21.9,86,29.67,7.0,South,5.8,-,N/A,,Clear,190,2014-01-12 01:13:00
7:32 PM,24.1,20.8,87,29.67,7.0,South,3.5,-,N/A,,Clear,190,2014-01-12 01:32:00
7:53 PM,22.8,19.4,87,29.66,7.0,South,4.6,-,N/A,,Clear,190,2014-01-12 01:53:00
8:12 PM,22.6,19.6,88,29.66,7.0,South,6.9,-,N/A,,Clear,190,2014-01-12 02:12:00
8:33 PM,23.2,20.1,88,29.65,7.0,SSW,5.8,-,N/A,,Clear,200,2014-01-12 02:33:00
8:52 PM,22.3,19.2,88,29.66,7.0,SSW,6.9,-,N/A,,Clear,200,2014-01-12 02:52:00
9:13 PM,23.2,20.3,89,29.65,10.0,SSW,6.9,-,N/A,,Clear,210,2014-01-12 03:13:00
9:32 PM,23.0,19.6,87,29.64,10.0,SSW,5.8,-,N/A,,Clear,200,2014-01-12 03:32:00
9:53 PM,22.5,18.9,86,29.64,10.0,SSW,5.8,-,N/A,,Clear,200,2014-01-12 03:53:00
10:12 PM,22.1,18.3,85,29.65,10.0,SSW,9.2,-,N/A,,Clear,200,2014-01-12 04:12:00
10:33 PM,21.7,18.1,86,29.64,10.0,SSW,5.8,-,N/A,,Clear,200,2014-01-12 04:33:00
10:53 PM,21.7,18.1,86,29.63,7.0,South,5.8,-,N/A,,Clear,190,2014-01-12 04:53:00
11:13 PM,21.9,18.1,85,29.62,7.0,South,6.9,-,N/A,,Clear,180,2014-01-12 05:13:00
11:33 PM,21.7,17.8,85,29.61,10.0,South,6.9,-,N/A,,Clear,180,2014-01-12 05:33:00
11:52 PM,21.9,18.1,85,29.60,10.0,South,3.5,-,N/A,,Clear,170,2014-01-12 05:52:00